Temperature
23 23 24 24 24 24 24 23 23 23 23 24 24 24 24 23 22 21 21 20 19 19 18 18 18 17 17 17 17 17 17 17 16 16 16 16 16 15 15 15 15 15 14 14
23 24 24 24 24 24 24 24 24 24 24 25 25 24 23 23 22 21 21 20 19 19 18 18 18 17 17 17 17 17 17 16 16 16 16 16 16 15 15 15 15 14 14 14
22 23 24 23 24 25 24 25 24 23 24 25 24 24 23 23 22 21 21 20 19 19 18 18 18 18 17 17 17 17 16 16 16 16 16 16 15 15 15 14 14 14 14 14
22 22 21 23 25 26 25 25 25 25 24 24 24 23 23 23 22 21 21 20 20 19 19 18 18 18 17 17 17 17 16 16 16 16 16 15 15 15 14 14 14 14 13 13
22 21 22 24 25 25 24 24 25 25 24 24 24 23 23 22 22 21 21 20 20 19 19 18 18 18 17 17 16 16 16 16 16 16 15 15 15 15 14 14 14 13 13 13
21 21 21 23 24 25 24 23 25 25 24 24 23 22 22 22 22 21 20 20 19 19 19 18 18 18 17 17 16 16 16 16 16 16 15 15 15 14 14 14 13 13 13 13
21 21 21 23 24 24 23 22 24 24 24 23 23 22 22 21 21 21 20 20 19 19 18 18 18 17 17 17 16 16 16 16 16 15 15 15 15 14 14 13 13 13 13 12
21 21 21 22 23 22 22 23 23 23 23 22 22 22 21 21 20 20 20 19 19 19 18 18 18 17 17 16 16 16 16 16 15 15 15 15 14 14 13 13 13 12 12 12
21 21 21 22 22 21 21 22 22 22 22 22 22 21 21 20 20 20 19 19 18 18 18 17 17 17 17 16 16 16 15 15 15 14 14 14 14 14 13 13 13 12 12 12
22 21 21 21 21 21 21 21 21 21 21 21 21 20 20 19 19 19 19 18 18 18 17 17 17 16 16 16 16 15 15 15 14 14 14 13 13 13 13 13 12 12 12 11
21 21 21 21 20 20 20 20 20 20 20 20 20 20 20 19 19 18 18 17 17 17 17 16 16 16 16 16 15 15 14 14 14 14 13 13 13 13 13 13 12 12 12 11
20 20 21 20 19 19 19 19 19 19 19 19 19 19 19 18 18 17 17 17 17 17 16 16 16 16 15 15 15 14 14 14 13 13 13 13 12 12 12 12 12 12 11 11
19 19 19 19 18 18 18 18 19 19 19 19 18 18 18 17 17 17 17 16 16 16 16 16 15 15 15 15 14 14 14 13 13 13 13 12 12 12 11 11 11 11 11 11
18 18 18 17 17 17 18 18 18 18 18 18 17 17 17 17 16 16 16 16 16 15 15 15 15 15 15 14 14 14 13 13 13 13 12 12 12 11 11 11 11 11 10 10
17 17 17 17 16 16 17 17 17 17 17 17 17 16 16 16 16 15 15 15 15 15 15 14 14 14 14 14 13 13 13 13 12 12 12 11 11 11 11 11 10 10 10 10
16 16 16 16 16 16 16 16 16 16 16 16 16 15 15 15 15 14 14 14 14 14 14 14 14 14 13 13 13 12 12 12 12 12 11 11 11 10 10 10 10 10 10 10
15 15 15 15 15 15 15 15 15 15 15 15 14 14 14 14 14 13 13 13 13 13 13 13 13 13 13 12 12 12 12 11 11 11 11 11 10 10 10 10 10 9 9 9
14 14 14 14 14 14 14 14 14 14 14 14 13 13 13 13 13 13 13 12 12 12 12 12 12 12 12 12 12 11 11 11 11 10 10 10 10 10 9 9 9 9 9 9
13 13 13 13 13 13 13 13 13 13 13 13 13 12 12 12 12 12 12 12 12 11 11 12 12 12 11 11 11 11 10 10 10 10 10 9 9 9 9 9 9 8 8 8
12 12 12 12 13 12 12 12 12 12 12 12 12 12 12 12 11 11 11 11 11 11 11 11 11 11 11 11 11 10 10 10 10 9 9 9 9 9 8 8 8 8 8 7
11 11 11 11 11 11 12 12 12 11 11 11 11 11 11 11 11 11 11 10 10 10 10 10 10 10 10 10 10 10 9 9 9 9 9 8 8 8 8 8 8 7 7 7
11 11 11 11 11 11 11 11 11 11 11 11 11 11 10 10 10 10 10 10 10 10 10 10 10 10 9 9 9 9 9 8 8 8 8 8 8 7 7 7 7 7 6 6
10 10 10 10 10 10 10 10 10 10 10 10 10 10 10 10 10 10 9 10 9 9 9 9 9 9 9 9 8 8 8 8 8 7 7 7 7 7 7 6 6 6 6 6
10 9 9 9 9 9 10 10 10 10 10 10 9 9 9 9 9 9 9 9 9 9 8 8 8 8 8 8 7 7 7 7 7 7 7 6 6 6 6 5 5 5 5 5
9 9 9 9 9 9 9 9 9 9 9 9 9 8 8 9 8 8 8 8 8 8 8 8 8 7 7 7 7 7 7 6 6 6 6 6 5 5 5 5 5 4 4 4
9 8 8 8 8 8 8 8 8 8 8 8 8 8 8 8 8 7 7 7 7 7 7 7 7 7 7 6 6 6 6 6 6 5 5 5 5 5 4 4 4 4 4 3
8 8 8 8 7 7 7 7 7 7 7 7 7 7 7 7 7 7 6 6 6 6 6 6 6 6 6 5 5 5 5 5 5 5 5 4 4 4 4 4 3 3 3 3
Wind_Speed
8 7 8 8 8 9 10 9 7 4 2 4 5 5 8 10 11 11 11 12 12 11 10 10 10 10 9 8 8 8 7 6 6 6 6 6 5 4 4 4 5 5 6 6
9 9 9 10 10 10 10 9 8 7 4 4 4 5 6 10 11 11 11 13 13 12 12 11 11 11 10 9 8 8 8 6 6 7 6 6 5 4 5 4 4 5 5 6
8 8 8 9 9 9 8 8 7 7 4 3 5 5 6 9 11 11 11 11 12 12 12 11 11 11 11 10 9 9 8 8 7 7 7 6 5 5 5 4 4 5 5 5
6 7 7 4 3 3 5 5 5 3 3 4 4 4 4 6 9 11 11 11 11 10 11 10 10 10 10 10 9 9 9 8 8 7 7 6 6 5 4 4 4 4 4 4
5 6 6 5 3 3 3 3 2 2 3 4 5 4 4 6 7 9 11 10 9 9 10 11 11 11 11 10 9 9 9 9 8 8 7 7 6 5 4 4 4 3 3 4
5 5 4 1 2 2 2 2 1 2 3 3 5 4 3 5 7 8 9 8 9 9 9 10 11 11 11 10 10 9 9 9 8 8 8 7 6 5 4 4 4 3 3 3
8 7 4 2 2 1 1 2 3 3 3 3 3 2 4 6 8 8 8 8 8 9 9 9 11 11 11 10 9 9 8 8 8 8 7 7 6 4 5 4 4 3 3 2
7 7 2 3 2 3 4 5 5 5 3 2 2 3 6 7 8 8 8 8 8 8 8 8 10 11 10 9 8 9 9 8 8 8 7 7 6 5 4 4 4 3 3 2
1 1 3 3 5 6 6 6 6 5 4 3 2 4 6 7 7 8 8 8 7 8 8 7 8 9 10 9 9 9 9 8 8 7 6 6 6 5 4 4 3 3 2 2
1 2 3 3 5 6 6 6 6 5 4 3 3 4 6 7 7 7 7 8 7 8 8 8 7 7 8 9 9 9 9 8 7 7 7 6 5 4 4 4 3 2 2 2
3 1 2 4 5 5 4 4 5 4 4 3 3 3 4 6 7 7 7 7 7 8 8 7 8 8 8 9 9 9 8 7 7 6 6 6 4 3 4 3 4 4 3 2
2 3 2 2 4 5 5 4 4 4 4 4 4 3 4 5 6 6 6 7 7 8 8 8 8 8 8 8 9 9 7 7 6 5 5 5 5 3 2 4 5 6 5 4
3 5 4 3 4 4 4 4 3 3 3 3 4 4 4 5 5 6 6 6 7 8 8 8 8 8 8 8 8 7 7 6 5 5 5 5 5 5 3 1 2 3 5 5
3 3 2 3 3 4 3 3 2 2 3 3 4 4 4 5 6 6 5 5 6 7 7 7 7 6 7 7 7 7 6 6 6 5 5 5 5 5 5 4 3 2 3 5
3 3 2 2 2 3 3 3 2 2 3 4 5 4 4 4 5 5 5 5 6 7 7 7 7 6 6 6 6 6 5 4 4 4 4 4 4 4 4 4 4 3 2 3
2 1 1 1 1 2 2 2 2 2 3 4 5 5 5 4 5 5 5 5 6 6 6 6 6 6 5 5 5 4 4 6 5 4 4 4 4 4 4 4 4 3 3 3
2 1 1 1 0 1 2 1 1 2 3 4 4 5 5 5 5 5 4 4 4 5 5 5 6 5 5 5 4 3 4 4 5 4 3 3 3 4 4 3 3 3 3 4
1 2 1 1 1 1 2 2 2 3 3 4 4 4 4 5 4 4 4 4 5 5 4 5 5 5 4 4 3 3 3 3 3 3 3 3 2 2 2 3 3 3 2 3
3 3 3 2 3 3 2 2 3 3 3 3 4 4 4 4 4 4 4 4 4 4 4 4 5 4 4 3 3 2 3 3 2 2 2 3 2 2 2 2 2 2 2 2
3 3 4 4 4 3 2 2 2 2 2 2 3 3 3 3 4 4 4 3 3 3 4 4 4 3 3 3 3 2 2 2 2 2 2 2 2 2 2 2 2 2 2 2
3 3 4 4 4 4 3 2 2 1 1 2 2 2 2 2 3 3 3 3 3 4 4 5 4 3 3 2 2 1 1 2 2 2 2 2 2 1 2 1 1 1 1 1
2 2 2 2 2 2 2 2 1 1 1 2 2 2 2 2 3 2 2 2 4 6 4 3 3 4 3 3 1 1 1 1 1 1 1 1 1 1 0 0 0 1 1 1
1 1 2 2 1 1 1 1 0 0 1 2 2 2 2 2 2 2 2 2 4 6 4 2 4 5 5 3 2 1 1 1 1 1 1 1 0 0 0 0 1 1 1 2
1 1 1 2 2 2 2 2 1 1 1 2 2 2 2 2 2 2 2 4 6 6 3 4 6 5 3 1 2 1 1 1 1 1 1 1 1 1 1 1 1 1 2 2
0 0 1 1 1 1 2 2 2 2 1 2 2 2 2 2 2 2 3 4 6 5 3 4 5 4 2 1 1 1 1 1 1 1 1 0 0 0 0 1 1 2 2 2
1 1 1 1 1 1 1 1 1 1 1 2 2 2 2 3 3 3 3 3 4 4 3 3 2 2 1 1 2 1 1 1 1 1 1 1 0 1 1 1 2 2 2 3
0 0 0 0 1 0 1 1 1 1 1 1 2 2 2 2 3 3 3 3 3 3 2 2 2 1 1 1 1 1 1 1 1 1 1 0 0 1 1 2 2 2 3 3
Wind_Direction
264 253 259 255 246 238 242 250 260 273 230 217 184 181 164 156 154 160 162 160 161 164 163 159 159 159 157 153 153 151 152 151 148 136 123 115 112 106 92 76 79 82 77 71
270 261 255 254 243 239 240 251 258 267 252 218 177 168 170 162 160 160 164 164 165 168 162 163 164 161 157 158 158 151 148 144 128 122 116 116 118 110 99 84 77 83 86 81
280 280 271 258 247 235 232 241 248 251 236 170 160 167 176 169 164 164 164 162 166 169 166 168 168 164 161 161 153 148 147 140 133 130 128 131 129 114 113 106 90 87 89 90
269 268 255 252 268 247 231 233 238 223 162 157 160 161 163 163 163 165 163 163 166 166 161 162 160 156 154 150 150 150 147 141 141 137 137 135 128 128 129 120 113 110 107 107
261 266 262 255 246 222 226 231 237 184 152 157 163 148 151 161 164 163 161 161 161 163 160 160 156 156 154 152 152 150 148 148 148 146 142 141 140 140 134 126 124 126 127 121
256 264 270 320 11 355 256 236 13 109 138 147 143 153 166 153 146 145 145 150 155 158 160 158 154 153 154 155 154 156 155 153 151 148 147 148 148 143 137 134 140 145 141 138
250 257 267 336 327 306 272 34 27 51 108 139 157 144 132 134 135 136 139 143 145 150 153 155 152 151 155 155 160 156 148 145 144 145 147 145 142 143 142 140 141 147 143 141
236 243 242 30 28 47 23 28 33 35 45 103 126 115 120 129 137 135 131 136 141 142 142 146 149 152 153 157 153 144 143 144 146 147 151 149 142 146 148 148 154 161 153 154
283 83 61 61 58 45 17 10 22 23 25 50 102 115 126 134 135 136 138 139 140 141 141 145 149 153 154 149 141 141 143 146 148 149 147 147 148 151 148 146 153 158 151 160
252 144 118 73 54 40 24 14 16 14 28 51 99 113 130 138 142 140 139 143 141 141 146 150 149 144 142 139 141 144 150 154 156 155 150 146 147 153 152 158 164 165 171 182
264 261 88 58 42 30 25 21 18 21 34 51 83 104 128 138 140 142 142 144 148 152 152 151 145 142 143 146 150 155 158 159 158 155 152 148 143 149 159 167 173 172 180 173
284 326 331 50 39 19 20 19 15 22 35 63 80 103 120 127 128 134 143 149 151 147 150 153 151 150 150 152 156 159 161 161 158 155 152 150 150 140 116 160 154 150 156 162
350 354 8 34 24 13 11 2 5 18 36 75 84 90 112 119 125 132 140 147 152 150 151 153 150 150 153 156 157 160 161 160 155 157 159 161 162 163 159 154 171 175 176 176
24 13 18 18 5 3 356 351 359 34 52 73 87 91 100 112 124 131 138 142 143 144 146 146 144 147 149 150 154 158 157 159 157 159 164 169 172 174 173 175 184 209 216 202
0 346 351 7 4 354 350 355 10 39 60 74 86 90 94 104 115 117 117 126 133 138 140 140 140 140 140 148 154 156 153 160 161 158 164 170 173 177 179 184 185 186 183 204
316 340 14 339 337 337 343 353 14 41 62 79 91 92 91 92 96 97 101 117 131 137 137 137 137 136 139 144 145 148 153 161 160 162 169 173 179 183 185 187 190 191 197 200
279 268 263 234 271 319 328 354 29 55 66 78 87 97 100 99 99 103 105 109 114 114 118 123 126 131 134 135 135 140 145 161 165 172 183 181 185 190 187 187 194 200 204 198
356 347 327 17 36 16 14 38 55 69 75 82 92 102 110 114 116 112 107 106 106 101 100 105 112 123 128 135 136 136 140 156 174 181 181 180 190 189 182 186 199 210 215 212
39 26 30 37 30 29 32 44 53 65 77 90 102 107 109 112 115 116 115 117 120 120 115 106 110 120 124 123 119 127 147 162 176 181 170 175 194 199 196 201 207 212 209 212
45 40 42 40 35 33 40 46 53 63 72 85 97 107 119 123 124 125 123 121 119 117 116 115 122 119 118 116 112 139 158 169 179 179 172 176 193 211 211 212 216 227 229 225
50 49 47 42 35 30 30 36 51 72 89 105 113 121 121 115 117 124 133 133 115 106 112 121 131 123 114 109 121 150 167 168 165 171 178 179 192 213 218 220 234 250 255 260
50 46 39 36 37 28 21 17 30 62 87 115 125 129 124 123 119 121 120 118 114 113 113 124 124 114 109 112 143 164 163 153 151 155 162 161 166 195 227 263 281 295 304 302
49 41 24 12 9 12 11 5 5 115 134 138 141 140 138 138 144 144 140 111 110 114 114 117 117 114 109 112 133 148 147 139 131 122 113 112 128 163 294 348 347 345 335 326
54 40 6 355 360 358 357 3 12 43 95 116 122 122 126 123 114 103 102 114 113 115 114 124 121 119 118 146 157 156 141 128 124 117 107 91 69 39 20 14 352 334 319 316
249 15 4 4 360 1 8 7 17 30 53 91 97 96 101 107 113 110 113 124 128 123 125 138 138 140 156 157 132 115 98 91 79 75 123 136 134 136 301 292 285 288 292 291
9 20 5 344 358 358 346 354 7 28 105 105 98 95 92 94 99 102 112 120 119 120 126 136 141 143 127 95 81 70 80 90 88 88 82 59 20 339 306 296 294 291 288 284
268 228 135 108 71 28 11 17 5 12 69 113 109 90 90 99 105 110 113 123 127 124 122 128 137 133 109 96 87 73 63 62 62 69 56 24 334 304 291 287 287 281 282 280
Height
1477 1473 1472 1472 1472 1472 1475 1476 1482 1478 1477 1475 1472 1474 1477 1480 1485 1490 1494 1498 1503 1508 1512 1516 1520 1524 1528 1531 1534 1537 1540 1543 1545 1547 1549 1550 1551 1553 1554 1555 1556 1557 1557 1557
1474 1468 1468 1469 1467 1468 1470 1470 1472 1472 1473 1468 1470 1473 1476 1479 1483 1487 1492 1496 1501 1506 1510 1513 1517 1521 1525 1529 1532 1535 1538 1541 1543 1545 1547 1549 1550 1552 1553 1554 1555 1556 1556 1557
1479 1470 1469 1473 1463 1463 1464 1464 1467 1472 1470 1467 1469 1472 1474 1477 1481 1485 1490 1494 1499 1503 1507 1511 1515 1519 1523 1527 1530 1534 1536 1539 1541 1543 1545 1547 1549 1551 1552 1553 1554 1555 1556 1556
1478 1477 1487 1470 1455 1455 1459 1460 1461 1462 1464 1466 1469 1471 1474 1476 1480 1484 1488 1492 1496 1501 1505 1509 1513 1518 1521 1525 1528 1532 1535 1537 1540 1542 1544 1546 1547 1549 1551 1552 1553 1554 1554 1555
1478 1482 1475 1462 1455 1455 1460 1462 1459 1461 1463 1466 1469 1471 1474 1476 1479 1482 1486 1490 1494 1498 1503 1507 1512 1516 1520 1523 1526 1530 1532 1535 1538 1540 1542 1544 1546 1547 1549 1551 1552 1553 1554 1554
1476 1483 1483 1467 1456 1455 1459 1466 1460 1460 1463 1466 1468 1473 1475 1476 1478 1481 1485 1489 1493 1497 1502 1506 1510 1514 1517 1521 1524 1527 1530 1533 1536 1538 1540 1542 1544 1546 1548 1549 1550 1551 1552 1553
1475 1478 1472 1462 1457 1457 1470 1471 1461 1461 1463 1466 1468 1471 1473 1475 1478 1481 1484 1488 1492 1496 1500 1504 1507 1511 1515 1519 1522 1525 1528 1531 1534 1536 1538 1540 1542 1544 1546 1547 1549 1550 1551 1551
1470 1476 1476 1462 1460 1464 1467 1463 1463 1464 1464 1466 1468 1470 1472 1474 1477 1480 1483 1487 1491 1494 1498 1502 1506 1509 1513 1516 1520 1523 1526 1529 1531 1534 1536 1538 1540 1542 1544 1545 1547 1548 1549 1550
1466 1470 1465 1463 1464 1465 1465 1465 1465 1466 1466 1467 1468 1470 1472 1475 1477 1480 1483 1486 1490 1493 1497 1501 1504 1508 1511 1514 1518 1521 1524 1527 1529 1532 1534 1536 1538 1540 1542 1543 1545 1546 1547 1547
1461 1463 1464 1464 1465 1465 1466 1466 1467 1467 1467 1468 1469 1470 1472 1475 1477 1480 1483 1485 1489 1492 1495 1499 1503 1506 1509 1513 1516 1519 1522 1524 1527 1530 1532 1534 1536 1537 1539 1540 1542 1543 1544 1545
1462 1462 1463 1465 1466 1467 1467 1467 1467 1467 1468 1468 1469 1470 1472 1474 1476 1479 1482 1484 1487 1491 1494 1497 1501 1504 1507 1510 1513 1517 1520 1522 1525 1527 1529 1531 1533 1535 1536 1538 1539 1541 1541 1542
1464 1464 1464 1466 1467 1467 1467 1467 1468 1468 1468 1468 1469 1470 1472 1474 1476 1478 1481 1483 1486 1489 1493 1496 1499 1502 1505 1508 1511 1514 1517 1520 1522 1525 1527 1528 1530 1533 1534 1536 1537 1538 1539 1540
1463 1464 1465 1466 1467 1468 1468 1468 1468 1468 1468 1469 1469 1470 1472 1473 1475 1478 1480 1482 1485 1488 1491 1494 1497 1500 1503 1506 1509 1512 1514 1517 1519 1522 1524 1525 1527 1529 1531 1533 1534 1535 1536 1537
1463 1464 1465 1466 1467 1467 1468 1468 1468 1468 1468 1469 1470 1470 1472 1473 1475 1477 1479 1482 1484 1487 1489 1492 1495 1498 1501 1504 1506 1509 1512 1514 1516 1518 1520 1522 1524 1526 1528 1529 1530 1531 1533 1533
1464 1465 1465 1466 1467 1467 1467 1467 1467 1467 1468 1469 1470 1470 1472 1474 1475 1477 1479 1481 1483 1486 1488 1490 1493 1496 1499 1501 1504 1507 1509 1511 1513 1516 1518 1520 1521 1523 1524 1526 1527 1528 1529 1530
1463 1464 1465 1465 1466 1466 1467 1467 1467 1468 1468 1469 1470 1471 1472 1474 1476 1477 1479 1480 1482 1484 1486 1489 1491 1494 1497 1499 1502 1504 1506 1509 1511 1513 1515 1516 1518 1520 1521 1522 1523 1524 1525 1525
1462 1463 1464 1464 1465 1466 1466 1466 1467 1467 1468 1469 1470 1471 1472 1474 1475 1477 1478 1480 1482 1484 1486 1488 1490 1492 1495 1497 1499 1502 1504 1506 1508 1510 1512 1513 1515 1516 1518 1519 1519 1520 1521 1521
1461 1462 1463 1463 1464 1465 1465 1466 1466 1467 1468 1469 1470 1470 1471 1473 1475 1476 1478 1480 1481 1483 1485 1487 1489 1491 1493 1495 1497 1499 1501 1503 1505 1507 1508 1510 1512 1513 1514 1515 1516 1516 1517 1517
1460 1461 1462 1462 1463 1464 1464 1465 1466 1467 1468 1469 1470 1470 1472 1473 1475 1476 1478 1479 1480 1481 1483 1486 1487 1489 1491 1493 1495 1497 1499 1500 1502 1504 1506 1507 1509 1510 1511 1511 1512 1512 1513 1513
1460 1461 1461 1462 1463 1463 1464 1464 1465 1466 1467 1468 1469 1470 1471 1473 1474 1475 1477 1478 1479 1480 1482 1484 1485 1487 1489 1491 1493 1494 1496 1498 1499 1501 1502 1504 1505 1506 1507 1508 1508 1508 1508 1508
1460 1460 1461 1461 1462 1463 1463 1464 1464 1465 1466 1467 1468 1469 1470 1472 1473 1474 1475 1477 1479 1480 1481 1482 1484 1486 1487 1489 1490 1492 1494 1495 1497 1498 1499 1500 1502 1503 1503 1504 1504 1504 1504 1504
1460 1460 1461 1461 1462 1462 1463 1463 1464 1464 1465 1466 1467 1468 1469 1470 1471 1472 1474 1475 1477 1478 1479 1480 1482 1484 1485 1487 1488 1489 1491 1492 1494 1495 1496 1497 1498 1499 1499 1500 1500 1500 1499 1499
1459 1460 1460 1460 1461 1461 1462 1462 1463 1463 1463 1464 1465 1466 1467 1468 1469 1470 1472 1473 1474 1475 1477 1478 1480 1481 1482 1484 1485 1487 1488 1490 1491 1492 1493 1494 1494 1495 1495 1496 1495 1495 1495 1494
1458 1459 1460 1460 1460 1460 1461 1461 1461 1462 1462 1463 1464 1465 1466 1467 1468 1469 1470 1471 1472 1473 1475 1476 1478 1479 1480 1482 1483 1485 1486 1487 1488 1489 1489 1490 1490 1491 1491 1491 1491 1490 1490 1489
1457 1458 1458 1459 1459 1459 1460 1460 1460 1460 1461 1461 1462 1463 1464 1465 1466 1467 1468 1469 1471 1472 1473 1474 1476 1477 1478 1480 1481 1482 1483 1484 1485 1485 1486 1486 1486 1486 1486 1486 1486 1486 1485 1484
1456 1456 1457 1458 1458 1458 1458 1458 1459 1459 1459 1460 1461 1462 1463 1464 1465 1466 1467 1468 1469 1470 1471 1473 1474 1475 1476 1477 1478 1479 1480 1481 1481 1482 1482 1482 1482 1482 1482 1482 1481 1481 1480 1479
1454 1455 1455 1456 1457 1457 1457 1457 1458 1458 1458 1458 1459 1461 1462 1462 1463 1464 1465 1466 1467 1469 1470 1471 1472 1473 1474 1475 1476 1476 1477 1477 1477 1478 1478 1478 1479 1478 1478 1477 1476 1476 1475 1473